RH
97 96 84 91 91 72 52 28 17 17 15 10 10 10 11 37 51 52 56 58 61 63 64 67 78 72 71 63 66 72 73 68 66 68 64 69 74 70 69 71 62 52 51
91 92 96 94 88 95 79 42 18 17 18 14 10 10 10 14 41 53 55 60 59 64 66 66 67 72 77 76 66 81 69 71 65 65 68 66 69 77 69 70 77 67 63
95 97 97 97 99 98 95 78 29 18 19 16 12 10 10 11 18 44 54 57 59 63 65 66 68 64 61 57 60 64 79 90 90 76 72 68 74 73 78 70 75 83 75
97 92 88 96 96 97 94 93 58 24 18 18 15 11 11 11 12 16 34 46 52 57 59 58 55 59 47 44 45 58 72 82 80 83 77 72 72 81 83 72 77 84 73
96 95 94 87 96 99 97 97 94 53 31 18 17 16 13 12 12 13 16 24 30 33 34 37 36 61 50 37 35 80 84 71 77 83 86 78 74 71 88 91 93 86 72
35 45 71 100 98 97 95 97 98 96 89 48 27 18 16 15 14 14 15 17 18 20 25 25 31 51 72 32 39 65 72 67 92 80 87 88 84 78 81 86 88 77 66
21 18 20 54 90 90 96 98 96 97 97 89 65 46 24 16 16 15 15 16 16 30 24 21 28 39 40 35 41 43 52 86 94 94 100 98 96 94 92 94 90 87 76
12 11 10 13 27 56 56 85 95 95 96 96 97 86 68 38 21 17 17 16 18 42 21 21 25 30 31 38 45 49 56 93 99 100 100 100 99 98 97 95 89 70 56
19 14 12 11 10 12 14 20 40 66 77 85 89 92 96 92 53 30 29 22 23 33 22 24 26 35 46 52 55 61 98 98 98 99 97 99 98 97 98 96 76 56 46
17 16 14 14 14 13 12 11 14 24 18 18 31 72 87 98 98 92 93 66 49 40 42 42 42 57 71 71 93 94 98 97 98 97 97 97 96 96 94 77 59 44 33
17 18 18 17 16 16 15 14 13 13 11 13 23 24 67 94 98 95 92 95 90 89 87 64 79 93 90 97 99 99 97 97 97 96 94 95 95 94 78 57 50 41 34
9 10 12 16 16 16 16 15 14 14 13 13 44 62 38 61 86 96 94 97 98 97 96 97 98 95 99 98 99 99 99 97 98 94 92 92 90 77 56 54 49 46 39
22 15 10 9 9 12 14 15 14 13 13 13 14 62 96 73 63 66 93 89 97 98 97 95 98 96 95 96 98 98 98 98 98 97 96 84 69 55 54 52 47 44 49
63 54 45 32 20 13 11 9 11 13 13 14 15 14 21 93 95 96 87 87 97 98 98 97 97 97 97 98 98 99 99 98 98 92 74 64 56 55 52 50 46 51 78
57 63 65 51 39 30 15 12 13 12 12 13 13 15 16 17 35 72 93 100 78 77 84 99 98 98 98 98 98 98 99 97 97 99 78 63 57 51 51 52 60 93 100
64 61 68 77 64 46 38 18 15 14 14 15 15 14 15 18 19 19 21 63 92 97 94 99 97 96 99 99 98 98 100 96 100 97 77 63 54 50 54 82 98 100 90
69 69 64 65 79 81 57 48 26 17 17 18 19 19 18 18 21 21 23 22 22 29 46 72 89 99 99 99 98 95 97 100 96 62 55 54 53 58 84 100 100 97 96
56 66 73 72 74 82 88 82 64 41 21 21 23 26 25 24 25 24 25 29 34 27 28 39 47 50 85 76 72 96 99 90 63 59 59 62 80 98 100 95 100 100 84
60 62 61 74 78 86 91 96 97 88 59 28 24 31 33 37 32 30 36 40 42 68 62 78 100 100 100 100 100 100 81 62 64 67 77 99 100 98 100 98 93 85 75
27 42 65 84 81 83 84 96 100 97 100 75 39 29 39 37 43 53 54 50 48 73 100 100 100 100 100 100 90 66 63 66 72 100 100 100 99 98 100 91 81 69 55
14 14 16 22 62 79 90 84 92 100 100 99 97 50 40 56 57 58 78 82 69 94 97 97 94 87 73 68 67 66 74 99 100 100 100 100 99 97 91 79 66 50 38
11 11 13 8 8 17 72 90 90 95 100 96 98 100 86 50 58 74 77 68 67 67 62 61 61 67 70 70 67 76 100 100 100 100 100 98 99 91 78 64 52 37 27
7 7 8 11 8 6 7 25 89 92 98 100 100 100 100 100 99 86 66 64 68 72 72 70 70 69 72 91 100 100 100 100 100 100 100 100 91 77 64 52 38 29 17
5 5 5 5 6 6 6 6 8 60 89 97 100 100 100 100 100 100 100 100 100 100 100 100 100 100 100 100 100 100 100 100 100 100 100 91 80 67 46 31 24 15 12
6 6 5 5 5 5 5 6 6 7 35 90 100 100 100 100 100 100 100 100 100 100 100 100 100 100 100 100 100 100 100 100 100 100 97 88 70 44 30 25 16 13 12
9 11 10 10 12 12 11 7 5 5 8 60 100 100 100 100 100 100 100 100 100 100 100 100 100 100 100 100 100 100 100 100 100 100 94 78 58 43 28 21 19 16 11
Wind_Speed
45 36 56 55 56 50 48 47 47 48 49 50 50 49 48 47 45 43 42 40 37 35 34 32 34 33 31 31 32 32 32 33 33 35 36 36 36 36 37 37 37 39 41
37 54 34 57 57 59 54 49 50 49 50 51 52 52 51 51 50 48 46 43 42 40 39 38 37 38 41 39 37 37 38 37 36 38 39 40 41 41 39 40 41 43 44
36 30 47 27 55 64 60 54 53 52 53 55 55 55 53 53 52 51 50 48 47 46 44 43 42 41 43 43 45 43 43 42 42 41 42 41 41 44 43 44 47 48 48
40 41 35 29 61 58 58 58 58 55 55 56 57 57 56 57 57 57 56 53 52 50 48 47 46 45 47 46 47 46 52 47 47 45 46 47 45 45 46 49 51 51 51
38 48 40 45 27 55 52 56 59 56 56 57 57 57 58 59 60 59 57 57 55 52 52 51 50 48 49 52 50 53 53 52 50 49 52 53 51 50 51 48 50 52 54
29 28 34 45 38 35 45 40 56 65 59 56 57 58 61 61 61 60 60 59 56 53 56 56 53 56 57 56 54 58 56 54 55 57 56 57 55 51 51 52 53 54 57
34 32 32 39 53 44 42 42 55 46 56 61 60 62 63 63 62 63 63 60 58 59 60 58 58 58 58 59 58 56 56 60 55 58 59 61 59 55 55 53 55 57 60
27 27 29 35 38 40 40 46 47 51 35 39 44 69 63 64 67 66 63 60 62 63 64 61 61 60 58 58 59 60 61 60 50 51 52 53 53 55 57 56 53 55 59
26 29 30 30 31 36 42 42 42 51 51 56 55 44 64 72 67 66 62 64 65 67 65 64 64 61 61 60 61 60 63 57 47 51 53 55 50 48 51 53 54 57 58
31 32 34 32 34 33 36 36 38 46 44 44 50 59 49 60 70 70 65 69 68 68 66 67 66 64 63 62 61 67 60 59 58 57 52 50 53 51 53 53 56 58 60
32 33 34 34 35 36 36 37 39 40 39 37 38 45 55 49 53 72 73 75 71 68 68 65 65 65 68 65 61 62 60 62 56 53 53 52 52 53 54 56 58 61 62
25 31 37 40 41 40 40 40 41 41 41 40 39 36 38 54 49 39 46 71 66 63 65 69 65 60 56 47 50 57 65 58 56 57 55 58 54 53 55 58 58 61 64
17 20 26 33 41 48 49 47 45 43 44 44 42 43 45 43 41 45 47 45 49 53 58 53 65 54 50 49 51 55 54 51 59 56 55 51 52 56 57 57 61 64 66
22 27 27 27 28 29 36 45 52 51 46 45 45 47 49 52 47 47 42 44 53 59 54 53 49 55 54 59 58 50 57 52 50 47 49 51 54 56 58 61 64 66 67
25 25 29 31 31 30 28 30 38 47 52 51 50 49 50 53 56 57 50 47 49 46 52 56 61 59 59 52 53 49 55 61 52 50 52 54 54 59 62 65 67 65 65
27 28 29 29 33 34 33 28 29 36 43 48 50 52 52 51 54 54 56 59 56 60 55 53 58 57 52 48 52 55 55 59 55 53 53 55 59 63 65 65 63 65 66
31 32 32 31 31 34 36 35 31 32 37 43 46 48 51 53 51 52 52 53 54 60 61 62 60 52 55 57 61 61 56 52 53 54 56 60 62 64 64 61 62 65 64
39 37 37 36 33 33 35 37 37 35 35 37 42 46 47 48 49 50 50 49 49 51 51 49 55 59 60 60 59 58 54 53 51 56 59 61 63 59 58 60 63 60 64
42 41 41 39 39 38 37 38 39 40 40 38 39 42 44 43 44 47 46 46 45 45 47 44 45 52 54 63 61 56 52 55 55 58 60 59 55 56 58 61 61 60 63
45 42 40 41 43 42 42 40 40 40 42 43 42 41 43 45 43 41 43 44 43 48 48 55 64 58 59 57 52 54 57 57 58 58 55 53 54 57 58 58 58 60 65
52 50 48 46 45 46 46 44 42 42 42 43 45 46 45 45 46 46 45 44 44 52 54 52 50 52 54 54 57 59 56 56 55 51 49 51 56 58 57 59 59 64 69
57 57 57 51 51 50 50 48 45 43 43 45 43 46 48 48 48 49 50 50 51 53 54 57 58 59 60 63 61 58 57 52 47 47 50 54 55 56 59 60 62 64 70
66 64 64 59 56 55 53 53 50 46 45 43 43 45 45 46 48 50 51 52 53 54 55 56 57 58 60 59 54 48 45 44 45 48 52 53 56 59 57 59 62 67 73
75 73 70 69 65 62 58 54 54 49 48 44 42 44 45 47 47 47 46 46 49 52 53 52 53 52 48 46 43 41 42 44 47 50 52 56 56 54 56 58 63 69 75
77 78 77 75 68 68 63 58 56 54 50 47 43 41 43 44 47 47 46 47 46 45 44 44 44 42 41 39 39 41 42 46 49 51 54 54 52 52 56 60 65 71 77
78 77 76 76 71 68 67 62 57 55 51 49 42 39 39 42 44 44 42 41 38 37 36 35 36 38 38 39 39 40 45 48 50 53 53 51 50 53 57 60 67 73 79
Wind_Direction
196 220 226 226 225 223 225 225 226 226 227 226 226 226 225 228 229 234 237 240 245 250 257 263 264 273 278 282 282 285 288 291 292 292 294 292 290 288 285 288 291 292 294
225 206 203 220 226 226 222 224 225 227 228 229 228 230 230 230 232 234 238 243 246 252 257 261 264 269 274 276 277 286 284 285 289 290 296 298 296 287 287 284 292 293 294
213 230 222 193 221 228 227 221 225 226 229 230 230 231 231 233 235 238 239 242 246 249 253 259 263 268 273 276 282 285 288 289 286 290 290 297 294 292 285 284 288 290 293
234 241 224 229 221 217 228 226 222 229 230 232 233 233 233 234 234 236 239 242 245 250 253 257 261 266 269 272 275 278 282 292 288 287 288 291 289 288 287 286 286 289 290
236 234 235 246 226 216 226 235 230 228 232 234 236 237 237 238 238 238 240 243 245 248 253 256 258 264 265 270 273 282 280 284 289 288 287 290 288 286 285 285 287 288 289
267 266 260 235 247 210 223 225 236 234 231 238 239 239 240 240 243 243 243 244 247 249 253 255 258 263 271 266 271 280 279 279 283 285 284 286 287 287 282 282 284 286 287
268 271 273 266 256 252 236 237 238 246 237 235 239 241 243 243 244 245 248 249 249 253 253 255 257 262 265 268 272 274 273 277 282 287 288 283 283 281 280 282 283 287 291
261 265 269 274 275 273 274 261 255 261 245 244 254 240 244 245 247 245 247 249 250 255 256 256 260 265 268 272 271 273 276 283 284 280 275 273 274 277 280 285 288 290 292
250 257 260 259 258 267 272 273 275 273 264 261 259 259 254 243 247 246 247 249 252 255 256 259 260 264 267 269 273 276 280 266 267 272 268 272 274 281 285 287 289 291 292
247 253 258 256 256 256 260 265 270 274 274 277 278 265 266 260 244 243 248 247 253 256 259 261 263 264 265 265 275 277 271 265 267 269 274 281 286 289 291 290 291 290 291
256 250 249 252 253 254 254 257 260 261 265 266 268 277 274 267 266 245 247 247 251 256 263 264 264 266 267 273 270 270 272 273 276 276 279 286 290 292 291 290 289 290 292
255 257 254 249 246 247 251 252 254 255 257 254 256 251 270 270 276 254 263 257 255 259 265 268 265 271 265 263 279 272 270 272 269 274 278 286 293 289 288 288 291 293 293
267 266 265 264 262 258 250 247 247 251 250 248 249 240 240 259 260 267 262 263 252 262 265 256 257 264 271 276 279 271 263 264 273 283 284 289 288 288 289 292 293 294 297
266 267 269 270 274 271 266 261 254 248 246 248 248 246 243 241 246 242 247 248 258 258 257 261 259 258 263 265 273 269 269 282 283 285 287 288 288 290 291 293 295 297 297
283 276 267 270 273 279 278 272 261 255 249 247 246 247 247 244 243 243 242 237 246 255 258 269 259 261 270 269 263 259 274 286 293 288 290 291 292 292 294 296 297 296 294
284 280 277 273 267 272 279 279 270 262 257 253 249 248 249 248 249 248 248 247 245 253 247 257 254 269 270 258 265 271 277 289 286 291 291 292 293 294 295 297 295 295 297
284 284 278 274 269 263 269 275 276 270 262 257 255 255 253 252 251 251 251 252 252 253 257 255 253 271 270 269 277 284 283 277 291 291 291 290 292 292 294 292 294 297 299
285 283 282 284 277 271 264 264 269 270 267 263 258 256 256 258 258 256 254 253 254 256 259 261 263 268 267 273 279 273 280 289 288 287 288 290 290 290 290 293 296 300 305
283 281 280 275 275 274 269 265 262 264 266 265 262 258 254 254 255 256 254 252 252 260 252 261 258 260 261 267 263 276 286 280 285 288 290 289 287 289 291 297 302 307 306
283 280 272 270 271 272 270 267 265 262 261 262 264 262 258 256 254 255 251 251 250 249 254 252 258 261 264 275 283 283 284 286 287 287 285 285 288 291 297 303 307 306 307
274 271 270 269 266 265 269 268 266 265 263 260 259 260 260 258 255 252 253 257 251 251 253 265 271 275 279 284 280 279 283 285 284 281 282 285 289 297 303 306 306 309 313
279 277 275 272 272 269 266 266 268 268 265 262 262 257 256 257 256 257 257 255 254 256 258 262 266 268 271 271 275 279 280 277 277 279 283 289 297 302 306 307 309 314 316
278 277 275 273 271 270 266 265 265 266 268 263 261 261 259 257 256 255 256 258 259 259 260 262 264 266 269 273 273 270 272 274 277 281 288 296 299 306 309 311 314 316 321
276 275 273 272 269 268 265 263 263 262 264 265 261 255 257 260 260 260 261 264 264 262 261 261 260 261 261 263 267 269 271 273 279 286 292 295 303 309 312 316 318 323 326
272 272 271 269 268 267 265 261 259 259 258 261 260 259 254 252 254 255 258 260 259 257 256 254 255 257 260 263 265 268 271 275 281 289 292 299 306 310 316 318 322 326 329
267 266 266 266 264 260 262 261 257 256 254 254 255 255 252 248 249 256 254 253 252 248 245 250 256 258 260 262 265 269 274 279 284 289 293 301 306 312 315 318 323 326 329